Lapse_Rate
5.5 5.5 5.9 5.6 5.5 5.8 5.4 5.4 5.5 5.8 5.9 5.8 6.1 5.8 6.1 6.0 5.8 5.9 5.7 5.6 5.6 5.6 5.7 5.5 5.1 5.2 5.5 5.5 5.5 5.5 5.1 4.5 4.2 4.2 4.2 4.1 4.4 4.1 4.2 4.3 3.6 3.6 3.2 3.3
5.7 5.9 6.0 6.0 5.8 6.2 6.1 6.2 5.9 5.8 5.9 5.6 6.1 6.1 6.3 6.0 6.0 5.8 5.7 5.6 5.6 5.5 5.6 5.4 5.4 5.3 5.3 5.4 5.4 5.2 4.8 3.9 3.8 3.8 3.9 3.7 3.7 3.7 3.8 3.8 4.0 3.6 3.4 3.1
6.2 5.9 5.8 5.7 5.9 6.3 6.1 6.5 6.3 6.0 6.3 6.3 6.4 6.3 6.2 6.0 5.9 5.9 6.0 5.9 5.9 5.9 5.8 5.4 5.0 4.9 4.9 4.7 4.9 4.6 4.4 4.0 4.3 4.9 4.6 3.6 3.2 3.2 3.3 3.3 3.3 3.3 3.1 3.8
6.1 6.0 6.0 6.2 6.3 6.5 6.2 6.5 6.3 5.9 6.3 6.2 6.2 6.2 6.1 5.9 6.0 6.2 6.0 6.0 6.2 6.2 5.4 5.0 4.6 4.6 4.3 3.9 3.7 3.7 3.8 3.9 3.8 3.7 3.6 3.4 3.4 3.1 3.3 3.2 3.4 3.7 3.1 3.4
6.0 5.9 6.1 6.5 6.3 6.4 6.4 6.1 6.2 6.6 6.5 6.4 6.2 6.2 6.1 6.2 6.2 6.2 6.2 6.2 6.1 6.1 6.1 5.9 5.5 5.1 4.5 4.4 4.1 3.8 3.5 3.3 3.0 3.0 3.2 2.9 2.6 2.9 2.8 3.0 3.4 3.4 3.5 3.0
6.2 6.1 6.1 6.0 6.3 6.2 6.3 6.3 6.4 6.0 6.3 6.4 6.5 6.5 6.2 6.3 6.3 6.2 6.1 6.1 5.7 5.4 5.3 5.2 5.0 4.8 4.2 4.1 4.0 3.7 3.2 3.0 3.0 2.7 2.8 2.5 2.0 2.4 2.9 3.0 3.1 3.1 2.9 3.0
6.4 6.4 6.4 6.3 6.6 6.3 6.3 6.4 6.5 6.6 6.3 6.3 6.2 6.4 6.4 6.4 6.0 5.7 5.7 5.4 5.4 5.1 4.8 4.2 3.8 3.7 3.4 3.5 3.4 3.1 2.9 3.0 3.0 2.8 2.7 1.7 2.7 1.9 2.3 2.4 2.5 2.7 2.5 2.8
6.4 6.4 6.4 6.2 6.2 6.5 6.7 6.1 6.4 6.6 6.6 6.3 6.1 6.2 6.1 5.7 5.6 5.1 5.2 5.4 4.7 4.3 4.0 3.8 3.6 3.3 3.2 3.2 3.0 3.1 3.0 3.2 3.2 3.0 3.0 3.1 2.8 2.7 2.7 2.4 2.4 2.6 3.2 3.3
6.4 6.3 6.4 6.4 6.4 6.3 6.7 6.3 6.4 6.5 6.7 6.3 6.3 5.6 5.4 5.1 5.2 5.1 4.6 4.0 3.6 3.5 3.4 3.3 3.0 2.9 2.4 2.1 2.1 2.9 3.0 3.1 2.8 2.9 2.8 1.8 2.1 2.6 2.7 2.8 1.9 3.1 2.8 3.3
6.6 6.6 6.7 6.9 6.8 6.6 6.5 6.9 6.3 6.3 6.5 6.2 5.8 4.7 4.7 4.9 4.7 4.3 3.9 3.5 3.2 3.1 2.9 2.8 2.7 2.8 2.6 2.7 2.4 2.8 3.1 3.0 2.9 3.2 3.2 3.0 3.1 3.2 2.9 2.6 2.8 2.7 3.0 3.4
7.0 6.9 6.8 6.9 6.7 6.5 6.4 6.5 6.3 6.5 6.1 5.4 4.5 4.8 4.6 4.3 4.0 3.8 3.4 3.0 2.8 2.9 2.8 2.7 2.6 2.2 2.3 2.5 2.5 2.5 2.8 2.9 2.6 2.8 3.0 3.0 3.5 3.6 3.5 3.4 3.6 3.7 3.8 4.2
6.3 6.6 6.8 6.5 6.5 6.6 6.5 6.5 6.2 5.5 4.9 4.9 4.8 4.6 4.1 3.5 3.3 3.2 3.0 2.9 2.8 2.9 2.8 2.6 2.5 2.5 2.4 2.6 2.6 2.8 2.7 2.9 3.0 3.2 3.6 4.3 3.9 4.0 3.9 3.4 3.7 4.0 3.9 4.1
6.3 6.3 6.4 6.4 6.5 6.5 5.7 5.1 4.9 5.1 5.2 5.0 4.4 3.9 3.4 3.0 3.0 3.1 3.1 2.7 2.5 2.5 2.7 2.7 2.6 2.6 2.5 2.6 2.7 2.8 2.9 3.2 3.1 3.3 4.3 3.9 4.5 4.2 3.8 4.1 4.2 4.4 4.4 4.4
5.9 5.8 5.7 5.6 5.4 5.0 5.0 5.1 5.0 4.8 4.6 4.3 3.4 3.2 3.0 3.0 3.0 2.8 2.7 2.9 2.7 2.8 2.7 2.7 2.6 2.7 2.7 3.1 3.2 3.4 3.6 3.6 3.7 4.1 4.4 4.2 5.4 4.5 4.4 4.5 4.5 4.5 4.4 4.5
5.1 5.1 5.1 5.1 5.0 4.9 4.7 4.6 4.5 4.3 4.2 3.9 3.4 2.8 2.6 2.4 2.6 2.7 2.7 2.7 2.7 2.7 2.7 2.9 3.1 3.2 3.4 3.7 3.9 4.3 4.1 4.0 3.7 3.9 4.1 4.4 4.9 4.8 4.5 4.3 4.7 4.5 4.3 4.8
4.5 4.3 4.2 4.3 4.3 4.3 4.4 4.2 3.9 3.9 3.5 3.6 3.1 2.3 2.4 2.5 2.6 2.8 2.8 2.9 3.1 3.3 3.4 3.6 3.8 4.0 4.2 4.3 4.5 4.3 4.4 4.6 4.5 4.3 4.4 4.9 4.7 5.0 4.7 4.5 4.6 4.5 4.7 4.6
4.3 4.3 4.3 4.3 4.2 4.1 4.1 4.2 3.8 3.5 3.5 3.6 3.0 2.3 2.5 2.8 2.9 3.2 3.4 3.6 3.8 4.1 4.4 4.6 4.8 4.8 4.7 4.7 4.6 4.8 4.8 4.9 4.9 4.6 4.5 5.5 5.2 5.2 5.2 4.9 4.9 4.9 5.0 4.7
4.0 4.0 4.0 3.9 4.0 3.9 4.0 3.8 3.6 3.7 3.7 3.9 3.4 2.7 3.1 3.3 3.7 4.0 4.3 4.6 4.9 5.0 5.0 5.1 5.2 5.2 5.2 5.2 4.8 4.6 4.7 5.1 5.3 5.3 5.0 5.0 5.2 5.4 5.4 5.0 4.8 4.8 5.2 4.9
3.9 3.9 4.0 3.9 4.1 4.3 3.9 3.7 3.8 4.0 4.4 4.2 3.8 4.0 4.0 4.4 4.7 5.1 5.2 5.4 5.5 5.7 5.6 5.7 5.6 5.6 5.4 5.0 4.9 5.0 5.0 5.0 5.0 5.7 5.8 5.5 5.5 5.5 5.7 5.7 5.7 5.4 5.5 5.4
4.1 4.0 3.9 4.0 4.0 4.2 4.4 4.6 4.8 4.9 4.9 4.6 4.8 5.0 5.0 5.2 5.5 5.6 5.8 5.9 6.0 6.4 6.1 6.0 6.1 5.9 5.6 5.3 5.2 5.2 5.3 5.3 5.4 5.2 5.5 5.6 5.5 5.6 5.5 5.5 5.5 5.3 5.3 5.3
4.7 4.9 5.1 5.1 5.2 5.4 5.4 5.5 5.5 5.3 5.2 5.0 5.3 5.6 5.6 5.7 5.9 5.9 6.0 6.1 6.1 6.0 5.9 5.7 6.0 6.0 5.7 5.4 5.4 5.4 5.5 5.5 5.6 5.5 5.6 5.5 5.5 5.5 5.6 5.7 5.6 5.5 5.3 5.2
5.7 5.8 6.0 6.2 6.0 6.1 5.9 5.5 5.4 5.5 5.3 5.4 5.7 5.9 6.1 6.2 6.3 6.1 6.0 6.0 5.9 5.9 5.9 5.6 6.0 5.8 5.5 5.5 5.7 5.9 5.9 5.7 5.7 5.7 5.7 5.6 5.6 5.4 5.3 5.3 5.4 5.3 5.3 5.2
6.4 6.5 6.6 6.1 6.0 6.2 5.7 5.3 5.5 5.4 5.6 5.9 6.0 6.4 6.4 6.5 6.1 6.1 6.0 6.0 5.9 5.8 5.9 6.1 6.2 5.9 6.0 6.0 5.7 5.9 6.1 6.1 6.0 6.0 5.8 5.7 5.6 5.4 5.2 5.3 5.2 5.1 5.2 5.3
7.0 6.5 6.0 5.5 5.7 5.2 5.5 5.7 6.0 6.1 6.4 6.4 6.4 6.3 6.1 6.0 6.0 5.7 5.6 5.8 5.6 5.9 5.9 6.2 6.0 6.0 5.8 5.9 6.0 6.0 5.9 5.7 5.5 5.5 5.5 5.5 5.4 5.3 5.3 5.2 5.1 5.1 5.2 5.3
6.3 5.9 5.2 5.2 5.6 5.8 6.0 6.2 6.4 6.5 6.6 6.6 6.5 6.1 5.8 5.8 5.7 6.0 5.9 6.2 6.4 6.4 6.3 6.1 6.0 6.0 6.1 6.0 5.9 5.8 5.7 5.6 5.6 5.4 5.3 5.2 5.1 5.0 5.0 5.0 4.9 4.9 5.0 5.0
5.7 5.2 5.4 5.8 6.1 6.1 6.2 6.3 6.3 6.5 6.5 6.1 5.9 5.4 5.4 5.6 5.9 5.6 5.8 5.6 6.1 6.0 6.0 6.3 6.3 6.3 6.2 5.8 5.6 5.5 5.4 5.3 5.1 4.9 4.7 4.6 4.6 4.5 4.4 4.6 4.8 5.1 5.1 5.1
5.3 5.5 5.9 5.9 6.0 6.1 6.2 6.1 6.1 6.1 5.9 5.7 5.2 5.1 5.4 5.4 5.5 5.4 5.4 5.6 6.0 6.2 6.5 6.5 6.3 6.0 5.9 5.8 5.5 5.2 5.0 4.7 4.4 4.3 4.3 4.3 4.4 4.4 4.6 4.7 4.9 5.0 5.2 5.4
Wind_Speed
27 26 27 28 29 24 8 3 2 1 1 3 2 3 7 3 4 1 4 2 8 9 10 7 6 9 5 7 8 8 5 4 3 9 1 2 1 4 5 4 5 1 1 8
28 29 30 29 35 33 6 4 2 2 2 4 4 4 5 5 6 6 7 7 7 4 8 4 8 5 0 6 7 8 7 1 1 5 3 3 2 3 3 4 2 8 4 6
28 30 29 28 40 30 5 3 3 2 1 2 4 5 5 5 3 3 4 2 4 3 5 4 3 3 3 4 2 7 6 3 7 10 4 4 2 4 4 6 7 7 19 14
25 25 26 30 42 34 5 3 4 5 5 6 7 7 5 6 7 4 6 3 6 6 5 2 5 4 2 1 3 2 3 5 5 8 4 4 6 7 9 10 11 13 22 15
25 26 29 30 42 37 1 5 4 1 3 3 13 9 7 11 1 7 6 5 4 4 7 7 4 4 4 4 2 4 1 3 1 4 6 8 16 14 9 16 18 16 17 20
22 24 26 26 41 21 3 1 1 2 6 5 6 6 6 6 11 1 1 3 4 6 3 3 5 4 4 3 5 6 4 3 2 4 2 6 11 9 13 1 1 4 7 5
21 24 27 30 48 39 3 3 3 3 4 4 2 2 4 7 6 4 4 4 4 2 6 4 4 3 3 2 3 3 4 4 3 2 2 5 3 3 1 3 4 3 3 3
18 21 23 25 48 46 4 2 2 3 4 2 5 6 7 8 8 4 4 4 3 2 4 2 2 1 1 2 5 1 3 3 2 3 5 6 3 2 1 3 6 5 4 3
20 21 18 22 38 26 6 5 2 3 7 4 4 2 3 3 3 3 3 3 4 2 2 2 3 3 2 2 2 3 3 3 6 2 3 6 4 2 4 3 5 3 4 4
3 18 25 34 30 23 10 4 10 6 5 6 5 4 3 3 4 3 3 2 2 3 2 2 3 2 1 3 3 2 1 2 3 4 6 5 3 3 3 4 5 3 5 6
41 38 33 29 28 23 10 6 8 5 4 9 11 6 5 4 4 2 1 2 2 1 1 1 1 1 1 2 0 2 3 3 3 2 1 8 5 2 4 4 3 4 5 7
36 35 33 31 30 27 19 6 12 17 7 7 10 13 12 5 3 1 4 2 2 1 2 1 1 1 2 2 2 2 2 3 2 6 4 3 5 5 4 5 6 5 4 8
34 34 33 32 31 28 31 10 8 8 8 7 6 8 11 18 8 2 2 1 2 2 1 2 2 3 1 2 3 1 2 2 1 3 3 5 5 5 5 6 8 6 8 9
38 38 38 38 37 32 23 5 4 5 6 5 3 7 8 14 14 13 4 4 4 3 3 3 2 2 1 1 1 1 2 3 3 6 8 8 6 5 7 8 9 9 11 14
37 37 37 37 38 38 33 23 16 9 5 4 4 1 9 12 12 14 13 9 4 3 3 3 1 1 2 2 2 2 4 6 4 5 7 6 11 7 4 7 13 15 15 17
29 25 19 13 11 6 3 4 9 16 3 5 3 2 8 10 8 11 10 6 4 3 3 1 1 2 3 2 2 6 6 4 5 6 7 9 12 8 5 12 18 16 15 16
35 37 38 40 40 25 6 2 3 5 3 4 4 3 4 9 3 3 3 5 3 3 2 2 2 1 3 2 2 7 8 11 10 6 3 10 8 10 11 9 15 18 17 16
30 31 30 26 22 16 12 22 21 12 5 5 3 3 3 8 5 4 4 3 3 4 2 1 2 2 1 2 9 7 7 7 8 14 13 19 16 12 16 14 13 14 15 15
18 14 13 11 7 4 2 9 20 23 6 4 4 3 2 6 4 2 3 2 3 1 2 1 1 1 3 8 7 6 7 6 10 11 8 10 13 18 18 15 15 14 16 15
8 10 4 4 3 12 7 5 5 7 6 5 3 0 3 3 3 4 3 2 1 2 2 1 1 3 6 9 12 10 12 12 11 12 16 15 17 17 18 18 16 15 16 17
3 4 3 1 9 3 4 5 6 4 5 4 2 2 1 3 2 2 1 1 2 3 3 2 3 3 5 7 7 9 11 12 14 15 18 18 19 19 18 18 17 16 17 16
6 8 5 3 6 5 8 4 4 6 1 4 2 3 1 2 2 3 3 1 3 2 2 3 3 4 7 7 11 12 12 13 16 16 18 19 19 18 18 18 17 17 17 16
4 5 6 5 6 15 8 7 4 4 4 3 3 3 2 3 3 2 3 4 3 1 3 3 5 4 7 10 13 17 16 16 17 18 17 18 19 18 16 17 16 16 15 14
5 6 10 5 6 4 1 3 3 3 1 4 1 2 1 2 4 1 3 2 2 3 3 5 3 13 17 18 16 16 19 18 18 18 18 17 17 16 16 14 14 14 14 14
5 6 6 5 2 2 3 3 2 2 1 2 2 2 1 2 3 1 3 4 4 4 4 7 12 20 19 19 19 19 18 18 17 16 16 16 16 15 14 13 12 12 12 12
5 8 4 1 2 3 3 2 2 1 1 0 1 1 4 3 1 4 1 0 4 4 6 14 16 20 20 18 19 18 17 16 16 15 14 15 15 15 15 15 13 13 12 12
6 3 1 1 1 3 2 1 2 2 1 2 2 5 3 3 3 3 3 3 7 14 15 14 17 18 19 20 18 18 17 15 16 16 16 16 16 14 13 13 14 13 11 8
Wind_Direction
227 223 217 200 177 161 142 156 197 353 326 123 168 188 197 184 197 135 234 238 220 194 190 207 223 220 215 168 155 167 187 139 217 216 244 197 183 203 162 174 206 228 45 270
225 218 213 205 171 162 141 171 100 353 289 172 205 249 244 208 169 202 180 231 216 185 191 232 201 192 122 167 161 163 183 194 323 294 358 12 192 211 135 101 83 204 196 254
235 225 214 198 174 174 109 138 140 359 39 266 195 180 226 223 211 214 184 207 122 161 222 263 228 148 186 186 162 150 137 171 194 248 122 124 217 233 214 198 225 241 237 259
234 215 215 194 178 175 140 199 191 166 183 229 210 175 194 198 209 226 177 230 200 176 202 249 205 148 100 37 241 118 117 237 215 259 228 191 231 218 207 212 228 229 265 249
234 226 219 196 181 176 153 161 144 208 138 124 195 193 204 193 172 166 205 206 188 169 206 191 187 126 176 192 213 141 188 250 93 276 241 247 263 252 217 225 242 254 263 273
239 224 218 202 176 156 134 128 120 110 148 157 158 194 196 210 138 162 92 254 141 194 173 106 80 70 118 125 146 171 164 153 119 258 56 346 284 239 241 237 232 182 238 268
264 236 215 207 176 186 128 166 133 140 165 162 194 172 184 152 173 129 52 68 139 75 106 81 43 7 272 199 217 175 158 160 187 254 70 245 286 294 320 199 224 214 275 246
277 273 240 210 184 188 93 89 100 145 112 353 54 42 102 67 57 68 71 44 21 91 74 89 81 188 6 64 47 245 208 162 243 245 209 313 354 280 110 109 281 203 191 252
259 266 246 212 188 124 84 57 49 90 112 17 308 317 39 109 102 79 67 29 357 5 73 107 192 207 218 251 340 14 55 44 204 124 229 251 224 229 163 110 277 200 171 222
146 89 96 107 122 116 100 56 27 84 93 7 352 42 9 349 62 85 82 36 29 354 119 167 186 219 329 229 193 175 103 40 207 236 259 291 192 153 113 84 287 198 189 226
91 93 95 98 93 91 86 58 31 104 95 44 39 26 24 357 11 100 136 132 356 65 122 214 159 194 227 88 294 202 173 157 213 84 28 275 166 89 176 212 250 220 229 242
87 89 89 88 91 88 85 80 54 78 87 118 84 62 43 18 346 338 38 63 64 93 101 80 126 140 38 157 246 317 268 186 198 187 223 245 233 213 235 182 219 240 222 246
86 85 84 84 84 88 107 108 117 82 100 73 46 9 1 17 4 300 105 84 123 60 174 148 145 102 158 151 251 329 318 161 196 0 285 244 244 249 235 224 235 240 235 253
91 92 93 93 92 93 90 88 63 83 102 89 21 24 35 5 25 34 26 89 68 82 47 73 74 99 342 195 161 195 201 128 186 268 285 299 280 234 246 258 250 258 259 264
93 95 97 97 96 92 83 69 49 54 105 121 149 25 9 11 28 38 38 47 55 37 48 44 82 50 73 10 68 270 186 187 160 236 233 217 272 250 225 243 269 274 274 276
84 84 78 73 62 61 47 64 36 33 57 103 86 133 17 3 16 32 34 36 48 71 92 139 339 263 93 97 217 259 233 247 197 230 221 208 264 275 227 257 270 269 266 265
88 84 79 75 72 65 53 72 288 15 77 88 108 74 25 352 9 23 14 31 54 82 115 58 126 351 80 98 208 248 236 232 243 251 44 290 244 262 266 232 257 270 277 271
92 88 81 73 71 70 47 37 36 62 82 53 77 48 43 6 12 356 4 14 22 19 144 25 82 344 74 272 246 267 264 261 276 262 226 246 272 296 281 275 272 267 268 271
84 75 65 52 39 42 321 36 46 51 67 94 63 41 319 351 16 15 350 14 45 260 60 334 78 272 236 228 236 252 247 221 265 276 266 261 254 267 274 273 270 262 270 272
46 37 33 41 13 327 7 10 24 26 23 41 72 165 347 9 356 352 8 9 45 36 276 327 109 262 264 250 237 248 263 262 268 280 287 288 282 285 286 281 279 274 273 275
39 51 70 274 346 44 37 48 42 354 36 22 332 94 319 352 47 300 72 231 325 44 288 80 313 281 250 255 253 255 255 257 261 260 265 270 274 279 281 281 275 271 271 275
82 108 82 39 27 35 70 24 13 41 58 338 7 317 262 307 94 64 336 92 26 268 300 53 285 252 253 273 274 281 274 273 282 276 279 278 278 277 279 282 283 280 278 278
51 49 50 24 324 41 48 356 353 16 349 356 336 321 336 339 43 46 47 47 246 295 38 247 236 275 280 284 309 315 307 300 296 293 290 288 286 284 281 283 281 282 279 275
59 50 31 61 13 44 161 194 221 262 260 314 274 287 2 305 15 152 46 235 50 6 343 243 269 311 318 319 316 313 312 311 307 305 302 298 295 293 291 284 282 282 279 278
65 49 48 49 227 250 237 241 283 272 277 359 354 346 44 332 24 31 303 347 319 221 257 298 313 316 315 316 317 315 315 315 313 313 312 309 308 306 303 298 291 286 283 281
69 48 59 345 59 328 340 311 285 267 289 103 71 20 29 6 1 10 251 342 256 279 296 308 310 311 312 313 315 314 313 316 317 316 317 319 320 316 310 305 299 294 288 282
54 14 14 99 158 226 269 278 281 302 40 23 79 43 262 298 330 304 202 239 285 305 304 307 308 314 318 317 316 321 324 328 330 330 328 324 316 313 311 314 313 312 306 296